This demonstration page uses our WeatherBlox Daily Observations layout. Learn more.

Hourly Observations for October 1, 2020

Temp ( °F °C ) Dew Point ( °F °C ) Humidity (%) Winds ( mph kmh ) Pressure ( in mb ) Visibility ( mi km ) Precip ( " mm )
12:53 am 00:53 Clear 45 7.2 42 5.6 90 90 Calm 29.96 1015 10 16.0934 0 0
1:53 am 01:53 Clear 43 6.1 40 4.4 89 89 Calm 29.97 1015 10 16.0934 0 0
2:53 am 02:53 Clear 42 5.6 40 4.4 92 92 Calm 29.97 1015 10 16.0934 0 0
3:53 am 03:53 Clear 41 5 39 3.9 93 93 Calm 29.97 1015 10 16.0934 0 0
4:53 am 04:53 Clear 40 4.4 39 3.9 97 97 Calm 29.97 1015 10 16.0934 0 0
5:53 am 05:53 Clear 40 4.4 38 3.3 93 93 Calm 29.98 1015 10 16.0934 0 0
6:53 am 06:53 Clear 40 4.4 38 3.3 93 93 Calm 29.99 1016 10 16.0934 0 0
7:53 am 07:53 Sunny 40 4.4 38 3.3 93 93 Calm 30 1016 10 16.0934 0 0
8:53 am 08:53 Sunny 48 8.9 45 7.2 89 89 Calm 30 1016 10 16.0934 0 0
9:53 am 09:53 Sunny 55 12.8 45 7.2 69 69 undefined N/A 30.01 1016 10 16.0934 0 0
10:53 am 10:53 Sunny 60 15.6 45 7.2 58 58 VRB 5 7 30.01 1016 10 16.0934 0 0
11:53 am 11:53 Sunny 65 18.3 45 7.2 49 49 VRB 7 11 30.01 1016 10 16.0934 0 0
12:53 pm 12:53 Mostly Cloudy 66 18.9 40 4.4 39 39 VRB 7 11 30 1016 10 16.0934 0 0
1:53 pm 13:53 Cloudy 67 19.4 37 2.8 33 33 W 12 19 29.99 1016 10 16.0934 0.001 0.001
2:53 pm 14:53 Mostly Cloudy 63 17.2 38 3.3 40 40 WNW 13 20 30 1016 10 16.0934 0.001 0.001
3:53 pm 15:53 Mostly Cloudy 64 17.8 39 3.9 40 40 NW 9 15 29.99 1016 10 16.0934 0 0
4:53 pm 16:53 Partly Cloudy 64 17.8 38 3.3 38 38 WNW 16 26 30.01 1016 10 16.0934 0 0
5:53 pm 17:53 Mostly Sunny 59 15 37 2.8 44 44 WNW 13 20 30.02 1017 10 16.0934 0 0
6:53 pm 18:53 Mostly Cloudy 57 13.9 39 3.9 51 51 VRB 3 6 30.04 1017 10 16.0934 0 0
7:53 pm 19:53 Mostly Cloudy 54 12.2 41 5 62 62 VRB 5 7 30.05 1018 10 16.0934 0.001 0.001
8:53 pm 20:53 Clear 53 11.7 39 3.9 59 59 W 8 13 30.07 1018 10 16.0934 0 0
9:53 pm 21:53 Clear 46 7.8 41 5 83 83 WNW 5 7 30.09 1019 10 16.0934 0 0
10:53 pm 22:53 Clear 44 6.7 40 4.4 85 85 W 3 6 30.11 1020 10 16.0934 0 0
11:53 pm 23:53 Clear 42 5.6 39 3.9 89 89 Calm 30.11 1020 10 16.0934 0 0

Powered by AerisWeather